Location: Eastchurch
(51.4000°N, 0.8667°E)
Time: 05:42:00
(UTC+00:00)

SL-16 R/B - Visible Passes

Search period start: 19 April 2026 00:00
Search period end: 29 April 2026 00:00
Orbit: 985 x 1006 km, 99.8° (Epoch: 18 April)

Date Brightness Start Highest point End Pass type
(mag) Time Alt. Az. Time Alt. Az. Time Alt. Az.
19 Apr 5.7 00:51:15 10° NE 00:52:02 10° NE 00:52:49 10° NNE visible
19 Apr 4.1 02:28:18 10° ESE 02:33:54 36° ENE 02:39:33 10° N visible
19 Apr 2.7 04:11:11 10° S 04:17:17 54° W 04:23:26 10° NNW visible
20 Apr 5.3 01:18:46 10° ENE 01:22:04 15° NE 01:25:22 10° N visible
20 Apr 3.4 02:58:18 10° SE 03:04:23 55° ENE 03:10:29 10° N visible
21 Apr 5.0 01:47:41 10° E 01:52:13 22° NE 01:56:46 10° N visible
21 Apr 2.7 03:28:42 10° SSE 03:34:58 83° ENE 03:41:17 10° NNW visible
21 Apr 5.5 19:35:58 10° N 19:39:13 15° NW 19:42:28 10° WNW visible
22 Apr 4.4 02:17:08 10° ESE 02:22:30 31° NE 02:27:54 10° N visible
22 Apr 2.6 03:59:29 10° S 04:05:41 64° WSW 04:11:57 10° NNW visible
22 Apr 5.9 20:08:41 10° NNW 20:09:15 10° NW 20:09:48 10° NW visible
23 Apr 5.4 01:08:09 10° ENE 01:10:46 13° NE 01:13:24 10° NNE visible
23 Apr 3.7 02:47:00 10° SE 02:52:55 46° ENE 02:58:51 10° N visible
24 Apr 5.2 01:36:46 10° E 01:40:52 19° NE 01:44:59 10° N visible
24 Apr 2.9 03:17:15 10° SSE 03:23:27 71° ENE 03:29:43 10° NNW visible
25 Apr 4.7 02:06:01 10° ESE 02:11:07 27° NE 02:16:13 10° N visible
25 Apr 2.6 03:47:53 10° SSE 03:54:08 76° WSW 04:00:27 10° NNW visible
25 Apr 5.7 19:55:55 10° NNW 19:57:58 12° NW 20:00:02 10° WNW visible
26 Apr 5.6 00:57:48 10° NE 00:59:30 11° NE 01:01:12 10° NNE visible
26 Apr 4.0 02:35:44 10° SE 02:41:28 40° ENE 02:47:14 10° N visible
27 Apr 5.3 01:25:57 10° E 01:29:34 16° NE 01:33:11 10° N visible
27 Apr 3.2 03:05:50 10° SE 03:11:59 60° ENE 03:18:08 10° NNW visible
28 Apr 4.9 01:55:00 10° E 01:59:44 23° NE 02:04:30 10° N visible
28 Apr 2.6 03:36:19 10° SSE 03:42:36 89° WSW 03:48:54 10° NNW visible
